Hourly Weather Roundup
Issued by NWS Central Illinois

Home | Current Version | Previous Version | Text Only | Print | Product List | Glossary On
Versions: 1 2 3 4 5 6 7 8 9 10 11 12 13 14 15 16 17 18 19 20 21 22 23 24 25 26 27 28 29 30 31 32 33 34 35 36 37 38 39 40 41 42 43 44 45 46 47 48 49 50
000
NZUS43 KILX 261310
HWRILX

AREA WEATHER ROUNDUP
NATIONAL WEATHER SERVICE, LINCOLN IL
700 AM CST MON JAN 26 2015


CITY           SKY/WX    TMP DP  RH WIND       PRES   REMARKS
BLOOMINGTON    PTCLDY    19  16  88 NW7       29.99R WCI  10
CHAMPAIGN      CLOUDY    25  20  81 NW9       29.98R WCI  15
DECATUR        MOCLDY    22  21  96 NW7       30.00R WCI  13
FLORA          CLOUDY    28  25  86 NW8       30.01R WCI  20
GALESBURG      CLOUDY    20  17  88 CALM      29.99R
JACKSONVILLE   CLOUDY    24  20  83 W5        30.02F WCI  18
LACON          MOCLDY    18  12  80 CALM      30.01R
LAWRENCEVILLE  CLOUDY    29  25  85 NW7       29.99R WCI  22
LITCHFIELD     CLEAR     23  19  85 NW6       30.02R WCI  15
$$


CITY           SKY/WX    TMP DP  RH WIND       PRES   REMARKS
LINCOLN        MOCLDY    23  18  83 W5        30.02S WCI  16
MACOMB         CLOUDY    22  20  91 S3        30.02F
MATTOON        CLOUDY    26  22  84 NW13      29.98R WCI  15
MT CARMEL AP   CLOUDY    32  27  80 NW8       29.98S WCI  25
OLNEY-NOBLE AP CLOUDY    30  27  86 CALM      30.00R
PARIS          CLOUDY    27  24  89 NE3       29.97R
PEORIA         CLOUDY    20  14  77 CALM      30.01R
PONTIAC        PTCLDY    20  17  88 W3        29.98F
RANTOUL        CLOUDY    26  21  81 NW6       29.98R WCI  19
ROBINSON       CLOUDY    28  25  86 NW5       29.99S WCI  23
SPRINGFIELD    MOCLDY    22  17  81 W6        30.01F WCI  14
TAYLORVILLE    PTCLDY    23  19  86 NW7       30.02S WCI  15
$$

...REGIONAL REPORTS...


CITY           SKY/WX    TMP DP  RH WIND       PRES   REMARKS
CHICAGO O`HARE MOCLDY    16  12  84 NW5       29.95S WCI   9
KANKAKEE       CLEAR     19  16  87 CALM      29.97F
MOLINE         CLOUDY    19  14  81 CALM      29.99R
MOUNT VERNON   CLOUDY    27  19  74 NW3       30.02R
PITTSFIELD     CLOUDY    28  24  86 SW5       30.02F WCI  22
QUINCY         CLOUDY    26  22  84 S8        29.99F WCI  18
ROCKFORD       CLOUDY    15  10  80 CALM      29.99R
$$


CITY           SKY/WX    TMP DP  RH WIND       PRES   REMARKS
BURLINGTON     CLOUDY    24  20  84 S3        29.99S
CEDAR RAPIDS   CLOUDY    22  18  85 S8        29.92F WCI  12
DES MOINES     MOCLDY    33  27  78 S7        29.93F WCI  27
KIRKSVILLE     CLOUDY    31  28  89 SW7       30.00F WCI  24
OTTUMWA        CLOUDY    30  27  88 SW7       29.93F WCI  23
ST LOUIS       MOCLDY    28  22  78 NW9       30.06R WCI  19
$$


CITY           SKY/WX    TMP DP  RH WIND       PRES   REMARKS
TERRE HAUTE    CLOUDY    27  20  75 NW6       29.96S WCI  20
EVANSVILLE     CLOUDY    31  25  78 NW5       29.99S WCI  26
INDIANAPOLIS   MOCLDY    17  12  80 N7        29.93R WCI   8
LAFAYETTE      CLEAR     16  11  80 CALM      29.97R
MADISON        MOCLDY    17  11  77 S5        29.93F WCI  10
MILWAUKEE      MOCLDY    18  11  74 CALM      29.95S
$$




USA.gov is the U.S. government's official web portal to all federal, state and local government web resources and services.